Regional Weather Roundup
Issued by NWS Upton, NY

Current Version | Previous Version | Text Only | Print | Product List | Glossary Off
Versions: 1 2 3 4 5 6 7 8 9 10 11 12 13 14 15 16 17 18 19 20 21 22 23 24 25 26 27 28 29 30 31 32 33 34 35 36 37 38 39 40 41 42 43 44 45 46 47 48 49 50
499 ASUS41 KOKX 241705 RWROKX REGIONAL WEATHER ROUNDUP NATIONAL WEATHER SERVICE NEW YORK NY 100 PM EDT WED AUG 24 2016 NOTE: "FAIR" INDICATES FEW OR NO CLOUDS BELOW 12,000 FEET WITH NO SIGNIFICANT WEATHER AND/OR OBSTRUCTIONS TO VISIBILITY. NYZ071-072-176-178-NJZ106-104-241800- NEW YORK CITY METRO AREA CITY SKY/WX TMP DP RH WIND PRES REMARKS Central Park SUNNY 85 58 39 VRB3 30.26F LaGuardia APRT MOSUNNY 86 57 37 VRB5 30.22F Kennedy INTL MOSUNNY 83 62 49 SW12 30.26F Newark/Liberty MOSUNNY 87 57 35 W6 30.23F Bronx Bot Gard N/A 84 55 37 W6 30.25F Wall St Helipt SUNNY 84 63 48 SW8 30.25F Teterboro SUNNY 86 56 35 CALM 30.22F $$ NYZ177-179-078>081-241800- LONG ISLAND NEW YORK CITY SKY/WX TMP DP RH WIND PRES REMARKS Farmingdale SUNNY 84 58 40 SW13 30.24F MacArthur/ISP MOSUNNY 84 61 45 S14 30.23F Shirley SUNNY 83 58 42 S12 30.24F Riverhead NOT AVBL Westhampton SUNNY 83 59 44 S12 30.26F Southampton N/A 75 66 73 SW8 30.21F Bridgehampton N/A 84 64 51 S2 30.24S East Hampton FAIR 80 62 54 SW7 30.24S Montauk N/A 79 66 64 VRB3 30.25F $$ NYZ052-065-067-241800- HUDSON VALLEY CITY SKY/WX TMP DP RH WIND PRES REMARKS White Plains MOSUNNY 82 55 39 VRB3 30.24F Newburgh SUNNY 81 64 57 W9 30.26F Montgomery SUNNY 83 64 52 S9 30.22F Poughkeepsie SUNNY 84 61 45 W7 30.21F Albany MOSUNNY 80 59 48 VRB5 30.22F $$ NJZ001-105-106-008-010-013-015-019>022-104-241800- NEW JERSEY CITY SKY/WX TMP DP RH WIND PRES REMARKS Newark/Liberty MOSUNNY 87 57 35 W6 30.23F Teterboro SUNNY 86 56 35 CALM 30.22F Caldwell SUNNY 83 60 45 S8 30.24F Morristown MOSUNNY 82 61 47 W6 30.25F Somerville MOSUNNY 83 61 47 S3 30.23F Linden FAIR 85 55 35 NW7 30.26F Sussex SUNNY 82 62 50 SW7 30.24F Abdover N/A 80 59 48 S3 30.26F Trenton SUNNY 84 60 44 MISG 30.25F Millville MOSUNNY 81 65 58 VRB6 30.27F Atlantic City MOSUNNY 82 58 43 NW5 30.26F Wrightstown SUNNY 83 62 48 W5 30.23F Toms River MOSUNNY 84 61 45 W10 30.26F Belmar SUNNY 83 60 45 VRB3 30.27F $$ PAZ047>061-062-071-241800- EASTERN PENNSYLVANIA CITY SKY/WX TMP DP RH WIND PRES REMARKS Philadelphia MOSUNNY 84 61 45 W9 30.27F Allentown SUNNY 82 61 48 SW5 30.26F Scranton SUNNY 82 64 54 W9 30.25F $$ CTZ002-004>006-009-010-012-RIZ004-006-007-MAZ004-011-015-241800- SOUTHERN NEW ENGLAND IN CT CITY SKY/WX TMP DP RH WIND PRES REMARKS Bradley INTL MOSUNNY 83 58 42 SW7 30.22F Hartford SUNNY 86 60 41 CALM 30.21F Danbury SUNNY 80 57 45 NW5 30.25F Wtrbury/Oxford MOSUNNY 81 55 41 SW6 30.28 Bridgeport SUNNY 82 63 52 S10 30.23F Meriden SUNNY 85 56 37 W5 30.22F New Haven MOSUNNY 80 60 50 S8 30.24F Chester FAIR 81 57 44 S7 30.24F Groton SUNNY 81 65 58 SW10 30.23S Wilimantic SUNNY 83 59 44 VRB5 30.24S IN RI CITY SKY/WX TMP DP RH WIND PRES REMARKS Providence MOSUNNY 84 57 39 SW8 30.22F Block Island SUNNY 78 67 68 SW9 30.26 Westerly SUNNY 81 60 48 SW9 30.25S IN MA CITY SKY/WX TMP DP RH WIND PRES REMARKS Boston MOSUNNY 84 57 39 VRB6 30.19F Worcester SUNNY 79 57 46 W9 30.25F Westfield SUNNY 84 58 40 S8 30.21F Provincetown SUNNY 81 60 48 SW8 30.22F Nantucket SUNNY 75 67 76 SW12 30.25S $$ ANZ330-335-338-340-345-350-353-355-241800- COASTAL MARINE OBSERVATIONS STATION/POSITION TIME SKY/WX TEMP WIND PRES VSBY WAVE AIR SEA DIR/SP/G HT/PER (UTC) (F) (DEG/KT/KT) (MB) (MI) (FT/S) NY HARB ENTRANCE 1550 75 77 250/ 4/ 4 1024.9 1/12 20S FIRE ISLAND 1550 74 76 290/ 8/ 10 1024.8 2/12 GREAT SOUTH BAY 1600 76 80 210/ 8/ 8 N/A 23 SSW MONTAUK P 1550 73 74 250/ 6/ 8 1025.3 2/12 15 E BARNEGAT LI NOT AVBL HUDSON CANYON 1550 75 78 1025.7 2/12 KINGS POINT 1600 82 76 1024.3 EXECUTION ROCKS 1600 81 180/ 4/ 6 N/A CENTRAL LI SOUND 1600 74 76 240/ 6/ 8 N/A 0 EASTERN LI SOUND 1600 73 70 240/ 8/ 10 N/A ROBBINS REEF 1606 78 160/ 12/ 13 1023.7 $$ >>>>>>>>>>>>>>>>>>>>>>>>>>>> KEY <<<<<<<<<<<<<<<<<<<<<<<<<<< > < > SKY/WX - Sky Condition/Present Weather < > TMP - Temperature in Fahrenheit < > DP - Dew Point in Fahrenheit < > RH - Relative Humidity in Percent < > WIND - Direction (from) and Speed in MPH < > PRES - Mean Sea Level Pressure (inches of Hg) < > WCI - Wind Chill Index < > VSB - VISIBILITY IN MILES < > HX - HEAT INDEX < > TC - TEMPERATURE IN CELSIUS < > VRB - VARIABLE WIND DIRECTION < > < >>>>>>>>>>>>>>>>>>>>>>>>>>>> KEY <<<<<<<<<<<<<<<<<<<<<<<<<<<

USA.gov is the U.S. government's official web portal to all federal, state and local government web resources and services.